Content
SEND FEEDBACK

Daily
Averages
Monthly
Summary
United States of America

SAN FRANCISCO, CALIFORNIA


Home > North America > United States > California
Elevation: 128 feet     Latitude: 37 46N     Longitude: 122 26W

WEATHER
 
SELECT A DAY
Number of Records: 184,835;   Date Range: 1/1/95 - 7/26/14
 
SHARE

PRINT THIS DATA

[ ← Previous Day ]
WEATHER ALMANAC - JULY 18, 2013
[ Next Day → ]
[ °C ]   °F
Weather ElementAverageHighLow
Temperature58.9 °F66.9 °F (2:56 pm)55 °F (1:56 am)
Dewpoint51.1 °F53.1 °F (10:56 am)50 °F (3:56 am)
Humidity75.8 %86 % (1:56 am)59 % (2:56 pm)
Barometer30.02 in30.08 in (1:56 am)29.96 in (6:56 pm)
Wind Speed10.4 mph23 mph (2:56 pm)
Weather ElementAverage
Visibility9.8 mi
Wind DirectionSSW (186.7 °)

Weather ElementTotal
Precipitation---
Heating Degree Days4.1 (Base 65)
Growing Degree Days11 (Base 50)
Averaged from 24 records on July 18, 2013
WEATHER CONDITIONS BREAKOUT
WIND DIRECTION BREAKOUT
WEATHER BY HOUR - JULY 18, 2013
[ °C ]   °F
Local TimeTemperatureDewpointHumidityBarometerVisibilityWind DirectionWind SpeedGust SpeedPrecipitationEventsConditions
1:56 AM55.0 °F51.1 °F86 %30.08 in10.0 miWNW (290°)5.8 mphMostly Cloudy
2:56 AM55.0 °F51.1 °F86 %30.06 in10.0 miCalmMostly Cloudy
3:56 AM55.0 °F50.0 °F83 %30.05 in10.0 miCalmMostly Cloudy
4:56 AM55.0 °F50.0 °F83 %30.05 in10.0 miCalmOvercast
5:56 AM55.0 °F50.0 °F83 %30.06 in10.0 miCalmOvercast
6:56 AM55.0 °F50.0 °F83 %30.06 in9.0 miCalmOvercast
7:56 AM55.0 °F51.1 °F86 %30.07 in8.0 miCalmOvercast
8:56 AM57.0 °F51.1 °F81 %30.08 in9.0 miCalmMostly Cloudy
9:43 AM60.8 °F51.8 °F72 %30.06 in10.0 miNorth (10°)4.6 mphPartly Cloudy
9:56 AM59.0 °F52.0 °F78 %30.06 in10.0 miNNW (340°)5.8 mphPartly Cloudy
10:56 AM62.1 °F53.1 °F72 %30.05 in10.0 miNNE (30°)6.9 mphPartly Cloudy
11:56 AM66.0 °F53.1 °F63 %30.04 in10.0 miNW (310°)12.7 mphPartly Cloudy
12:56 PM66.0 °F52.0 °F60 %30.02 in10.0 miWNW (300°)16.1 mphPartly Cloudy
1:56 PM66.0 °F52.0 °F60 %30.02 in10.0 miWNW (300°)19.6 mphPartly Cloudy
2:56 PM66.9 °F52.0 °F59 %30.00 in10.0 miWNW (300°)23.0 mphPartly Cloudy
3:56 PM66.0 °F51.1 °F59 %29.99 in10.0 miWNW (290°)23.0 mphPartly Cloudy
4:56 PM64.0 °F51.1 °F63 %29.98 in10.0 miWNW (290°)23.0 mphPartly Cloudy
5:56 PM62.1 °F51.1 °F67 %29.97 in10.0 miWest (280°)20.7 mphScattered Clouds
6:56 PM57.9 °F50.0 °F75 %29.96 in10.0 miWest (280°)19.6 mphScattered Clouds
7:56 PM55.9 °F50.0 °F80 %29.97 in10.0 miWNW (290°)19.6 mphScattered Clouds
8:56 PM55.0 °F51.1 °F86 %29.97 in10.0 miWNW (290°)16.1 mphScattered Clouds
9:56 PM55.0 °F51.1 °F86 %29.99 in10.0 miWNW (290°)13.8 mphPartly Cloudy
10:56 PM55.0 °F50.0 °F83 %29.99 in10.0 miWNW (300°)10.4 mphPartly Cloudy
11:56 PM55.0 °F51.1 °F86 %29.98 in10.0 miWNW (290°)8.1 mphPartly Cloudy
Hourly data recorded from KSFO, located miles away from San Francisco, California







STORIES FROM OUR PARTNERS